| time (UTC) | temp C | wind direction | speed KPH | gust KPH | rain 1hr cm | rain 24hr cm | rain mn cm | humidity % | barometer mb |
| 20260507105703 | 20 | 109 | 16.1 | 16.1 | 0.00 | 0.00 | 0.00 | 87 | 1010.5 |
| 20260507105104 | 21 | 96 | 9.7 | 16.1 | 0.00 | 0.00 | 0.00 | 87 | 1010.5 |
| 20260507104504 | 20 | 90 | 16.1 | 16.1 | 0.00 | 0.00 | 0.00 | 88 | 1010.5 |
| 20260507103904 | 20 | 112 | 16.1 | 16.1 | 0.00 | 0.00 | 0.00 | 88 | 1010.5 |
| 20260507103604 | 20 | 125 | 16.1 | 16.1 | 0.00 | 0.00 | 0.00 | 88 | 1010.5 |
| 20260507103303 | 20 | 135 | 16.1 | 16.1 | 0.00 | 0.00 | 0.00 | 86 | 1010.5 |
| 20260507103004 | 21 | 131 | 12.9 | 14.5 | 0.00 | 0.00 | 0.00 | 87 | 1010.5 |
| 20260507102704 | 20 | 135 | 12.9 | 14.5 | 0.00 | 0.00 | 0.00 | 86 | 1010.5 |
| 20260507102403 | 20 | 141 | 14.5 | 14.5 | 0.00 | 0.00 | 0.00 | 86 | 1010.5 |
| 20260507102104 | 20 | 152 | 12.9 | 12.9 | 0.00 | 0.00 | 0.00 | 87 | 1010.5 |
| 20260507101804 | 20 | 158 | 9.7 | 9.7 | 0.00 | 0.00 | 0.00 | 87 | 1010.5 |
| 20260507101504 | 20 | 145 | 9.7 | 9.7 | 0.00 | 0.00 | 0.00 | 88 | 1010.5 |
| 20260507101204 | 20 | 131 | 9.7 | 9.7 | 0.00 | 0.00 | 0.00 | 88 | 1010.5 |
| 20260507100604 | 20 | 105 | 6.4 | 14.5 | 0.00 | 0.00 | 0.00 | 89 | 1010.5 |
| 20260507100303 | 20 | 100 | 6.4 | 14.5 | 0.00 | 0.00 | 0.00 | 87 | 1010.5 |
| 20260507100005 | 20 | 94 | 9.7 | 17.7 | 0.00 | 0.00 | 0.00 | 87 | 1010.5 |
| 20260507095404 | 20 | 79 | 9.7 | 17.7 | 0.00 | 0.00 | 0.00 | 86 | 1010.5 |
| 20260507094504 | 20 | 121 | 14.5 | 17.7 | 0.00 | 0.00 | 0.00 | 87 | 1010.5 |
| 20260507094203 | 20 | 123 | 12.9 | 16.1 | 0.00 | 0.00 | 0.00 | 86 | 1010.5 |
| 20260507093604 | 20 | 118 | 16.1 | 16.1 | 0.00 | 0.00 | 0.00 | 87 | 1010.5 |
| 20260507093004 | 20 | 95 | 14.5 | 17.7 | 0.00 | 0.00 | 0.00 | 86 | 1010.5 |
| 20260507092703 | 20 | 120 | 6.4 | 20.9 | 0.00 | 0.00 | 0.00 | 86 | 1010.5 |
| 20260507092403 | 20 | 106 | 17.7 | 20.9 | 0.00 | 0.00 | 0.00 | 86 | 1010.5 |
| 20260507092104 | 20 | 106 | 6.4 | 20.9 | 0.00 | 0.00 | 0.00 | 87 | 1010.5 |
| 20260507091804 | 20 | 90 | 12.9 | 20.9 | 0.00 | 0.00 | 0.00 | 87 | 1010.5 |
| 20260507091504 | 19 | 90 | 12.9 | 25.7 | 0.00 | 0.00 | 0.00 | 89 | 1010.5 |
| 20260507091203 | 20 | 90 | 8.0 | 25.7 | 0.00 | 0.00 | 0.00 | 89 | 1010.5 |
| 20260507090604 | 20 | 87 | 25.7 | 25.7 | 0.00 | 0.00 | 0.00 | 88 | 1010.5 |
| 20260507090304 | 20 | 100 | 17.7 | 19.3 | 0.00 | 0.00 | 0.00 | 89 | 1010.5 |
| 20260507090005 | 20 | 111 | 19.3 | 19.3 | 0.00 | 0.00 | 0.00 | 89 | 1010.5 |
| 20260507085404 | 20 | 92 | 16.1 | 17.7 | 0.00 | 0.00 | 0.00 | 89 | 1010.5 |
| 20260507085105 | 20 | 81 | 17.7 | 17.7 | 0.00 | 0.00 | 0.00 | 89 | 1010.5 |
| 20260507084804 | 20 | 78 | 6.4 | 17.7 | 0.00 | 0.00 | 0.00 | 89 | 1009.5 |
| 20260507084504 | 20 | 66 | 17.7 | 17.7 | 0.00 | 0.00 | 0.00 | 89 | 1009.5 |
| 20260507084204 | 20 | 60 | 17.7 | 17.7 | 0.00 | 0.00 | 0.00 | 89 | 1009.5 |
| 20260507083904 | 20 | 45 | 9.7 | 9.7 | 0.00 | 0.00 | 0.00 | 89 | 1009.5 |
| 20260507083604 | 20 | 51 | 9.7 | 11.3 | 0.00 | 0.00 | 0.00 | 89 | 1009.5 |
| 20260507083304 | 20 | 83 | 9.7 | 11.3 | 0.00 | 0.00 | 0.00 | 88 | 1010.5 |
| 20260507083004 | 20 | 116 | 9.7 | 11.3 | 0.00 | 0.00 | 0.00 | 89 | 1010.5 |
| 20260507082704 | 20 | 140 | 11.3 | 11.3 | 0.00 | 0.00 | 0.00 | 90 | 1010.5 |
| 20260507082404 | 20 | 135 | 9.7 | 9.7 | 0.00 | 0.00 | 0.00 | 90 | 1010.5 |
| 20260507082104 | 20 | 135 | 8.0 | 9.7 | 0.00 | 0.00 | 0.00 | 90 | 1010.5 |
| 20260507081804 | 20 | 135 | 8.0 | 9.7 | 0.00 | 0.00 | 0.00 | 89 | 1009.5 |
| 20260507081504 | 20 | 135 | 8.0 | 9.7 | 0.00 | 0.00 | 0.00 | 89 | 1009.5 |
| 20260507081204 | 20 | 130 | 9.7 | 9.7 | 0.00 | 0.00 | 0.00 | 88 | 1009.5 |
| 20260507080904 | 20 | 111 | 9.7 | 9.7 | 0.00 | 0.00 | 0.00 | 89 | 1009.5 |
| 20260507080603 | 20 | 95 | 9.7 | 9.7 | 0.00 | 0.00 | 0.00 | 90 | 1009.5 |
| 20260507080303 | 20 | 83 | 8.0 | 9.7 | 0.00 | 0.00 | 0.00 | 90 | 1010.5 |
| 20260507080004 | 20 | 85 | 8.0 | 9.7 | 0.00 | 0.00 | 0.00 | 90 | 1010.5 |
| 20260507075703 | 20 | 86 | 9.7 | 9.7 | 0.00 | 0.00 | 0.00 | 90 | 1010.5 |
| 20260507075404 | 20 | 85 | 9.7 | 9.7 | 0.00 | 0.00 | 0.00 | 90 | 1010.5 |
| 20260507075104 | 20 | 82 | 4.8 | 9.7 | 0.00 | 0.00 | 0.00 | 90 | 1010.5 |
| 20260507074804 | 20 | 71 | 4.8 | 9.7 | 0.00 | 0.00 | 0.00 | 90 | 1010.5 |
| 20260507073904 | 19 | 52 | 9.7 | 12.9 | 0.00 | 0.00 | 0.00 | 92 | 1010.5 |
| 20260507073604 | 18 | 85 | 12.9 | 12.9 | 0.00 | 0.00 | 0.00 | 91 | 1010.5 |
| 20260507073303 | 19 | 96 | 3.2 | 6.4 | 0.00 | 0.00 | 0.00 | 91 | 1010.5 |
| 20260507073003 | 19 | 82 | 3.2 | 6.4 | 0.00 | 0.00 | 0.00 | 91 | 1010.5 |
| 20260507072704 | 19 | 75 | 6.4 | 12.9 | 0.00 | 0.00 | 0.00 | 91 | 1010.5 |
| 20260507072403 | 19 | 70 | 3.2 | 12.9 | 0.00 | 0.00 | 0.00 | 91 | 1010.5 |
| 20260507072103 | 19 | 72 | 4.8 | 12.9 | 0.00 | 0.00 | 0.00 | 91 | 1010.5 |
| 20260507071804 | 19 | 75 | 12.9 | 12.9 | 0.00 | 0.00 | 0.00 | 91 | 1010.5 |
| 20260507071203 | 19 | 55 | 8.0 | 8.0 | 0.00 | 0.00 | 0.00 | 92 | 1010.5 |
| 20260507070604 | 19 | 21 | 4.8 | 6.4 | 0.00 | 0.00 | 0.00 | 93 | 1010.5 |
| 20260507070304 | 18 | 37 | 6.4 | 9.7 | 0.00 | 0.00 | 0.00 | 93 | 1010.5 |
| 20260507070008 | 18 | 46 | 4.8 | 9.7 | 0.00 | 0.00 | 0.00 | 94 | 1010.5 |
| 20260507065703 | 18 | 56 | 6.4 | 9.7 | 0.00 | 0.00 | 0.00 | 94 | 1010.5 |
| 20260507065404 | 18 | 50 | 9.7 | 9.7 | 0.00 | 0.00 | 0.00 | 95 | 1010.5 |
| 20260507065104 | 18 | 48 | 4.8 | 6.4 | 0.00 | 0.00 | 0.00 | 96 | 1010.5 |
| 20260507064803 | 18 | 45 | 4.8 | 6.4 | 0.00 | 0.00 | 0.00 | 96 | 1010.5 |
| 20260507064503 | 17 | 33 | 4.8 | 6.4 | 0.00 | 0.00 | 0.00 | 97 | 1010.5 |
| 20260507064204 | 17 | 26 | 6.4 | 6.4 | 0.00 | 0.00 | 0.00 | 97 | 1010.5 |
| 20260507063904 | 17 | 10 | 6.4 | 6.4 | 0.00 | 0.00 | 0.00 | 97 | 1010.5 |
| 20260507063604 | 17 | 12 | 3.2 | 4.8 | 0.00 | 0.00 | 0.00 | 98 | 1010.5 |
| 20260507063303 | 16 | 16 | 3.2 | 6.4 | 0.00 | 0.00 | 0.00 | 98 | 1009.5 |
| 20260507063003 | 16 | 13 | 3.2 | 6.4 | 0.00 | 0.00 | 0.00 | 98 | 1009.5 |
| 20260507062704 | 16 | 22 | 3.2 | 6.4 | 0.00 | 0.00 | 0.00 | 98 | 1009.5 |
| 20260507062404 | 15 | 27 | 4.8 | 6.4 | 0.00 | 0.00 | 0.00 | 98 | 1009.5 |
| 20260507062103 | 15 | 33 | 1.6 | 4.8 | 0.00 | 0.00 | 0.00 | 98 | 1009.5 |
| 20260507061504 | 15 | 32 | 4.8 | 4.8 | 0.00 | 0.00 | 0.00 | 98 | 1009.5 |
| 20260507061204 | 15 | 24 | 4.8 | 4.8 | 0.00 | 0.00 | 0.00 | 98 | 1009.5 |
| 20260507060904 | 15 | 37 | 4.8 | 4.8 | 0.00 | 0.00 | 0.00 | 98 | 1009.5 |
| 20260507060303 | 15 | 24 | 1.6 | 6.4 | 0.00 | 0.00 | 0.00 | 98 | 1009.5 |
| 20260507060004 | 14 | 30 | 4.8 | 6.4 | 0.00 | 0.00 | 0.00 | 98 | 1009.5 |
| 20260507055703 | 13 | 38 | 3.2 | 6.4 | 0.00 | 0.00 | 0.00 | 98 | 1009.5 |
| 20260507055103 | 13 | 49 | 6.4 | 6.4 | 0.00 | 0.00 | 0.00 | 98 | 1009.5 |
| 20260507054803 | 13 | 49 | 4.8 | 6.4 | 0.00 | 0.00 | 0.00 | 98 | 1009.5 |
| 20260507054204 | 13 | 38 | 3.2 | 4.8 | 0.00 | 0.00 | 0.00 | 98 | 1009.5 |
| 20260507053903 | 13 | 32 | 4.8 | 6.4 | 0.00 | 0.00 | 0.00 | 98 | 1009.5 |
| 20260507053303 | 13 | 23 | 3.2 | 6.4 | 0.00 | 0.00 | 0.00 | 98 | 1009.5 |
| 20260507052704 | 13 | 26 | 4.8 | 6.4 | 0.00 | 0.00 | 0.00 | 98 | 1009.5 |
| 20260507052404 | 13 | 33 | 4.8 | 6.4 | 0.00 | 0.00 | 0.00 | 98 | 1009.5 |
| 20260507052104 | 13 | 34 | 1.6 | 6.4 | 0.00 | 0.00 | 0.00 | 98 | 1009.5 |
| 20260507051804 | 13 | 38 | 6.4 | 6.4 | 0.00 | 0.00 | 0.00 | 98 | 1009.5 |
| 20260507051504 | 13 | 38 | 4.8 | 6.4 | 0.00 | 0.00 | 0.00 | 98 | 1009.5 |
| 20260507050904 | 13 | 71 | 1.6 | 3.2 | 0.00 | 0.00 | 0.00 | 98 | 1009.5 |
| 20260507050604 | 12 | 72 | 1.6 | 3.2 | 0.00 | 0.00 | 0.00 | 98 | 1009.5 |
| 20260507050304 | 12 | 90 | 0.0 | 3.2 | 0.00 | 0.00 | 0.00 | 98 | 1008.5 |
| 20260507050003 | 12 | 90 | 3.2 | 3.2 | 0.00 | 0.00 | 0.00 | 98 | 1008.5 |
| 20260507045704 | 12 | 337 | 0.0 | 3.2 | 0.00 | 0.00 | 0.00 | 98 | 1008.5 |
| 20260507045403 | 12 | 341 | 0.0 | 3.2 | 0.00 | 0.00 | 0.00 | 98 | 1008.5 |
| 20260507045104 | 12 | 343 | 0.0 | 3.2 | 0.00 | 0.00 | 0.00 | 98 | 1008.5 |
| 20260507044803 | 12 | 346 | 3.2 | 3.2 | 0.00 | 0.00 | 0.00 | 98 | 1008.5 |
| 20260507044503 | 12 | 350 | 3.2 | 3.2 | 0.00 | 0.00 | 0.00 | 98 | 1008.5 |
| 20260507043904 | 12 | 350 | 1.6 | 3.2 | 0.00 | 0.00 | 0.00 | 98 | 1008.5 |
| 20260507043603 | 12 | 346 | 3.2 | 3.2 | 0.00 | 0.00 | 0.00 | 98 | 1008.5 |
| 20260507043304 | 12 | 337 | 0.0 | 1.6 | 0.00 | 0.00 | 0.00 | 98 | 1009.5 |
| 20260507042404 | 12 | 340 | 0.0 | 3.2 | 0.00 | 0.00 | 0.00 | 98 | 1009.5 |
| 20260507042103 | 12 | 340 | 3.2 | 3.2 | 0.00 | 0.00 | 0.00 | 98 | 1009.5 |
| 20260507041804 | 12 | 350 | 3.2 | 3.2 | 0.00 | 0.00 | 0.00 | 98 | 1008.5 |
| 20260507041503 | 12 | 1 | 0.0 | 1.6 | 0.00 | 0.00 | 0.00 | 98 | 1008.5 |
| 20260507041204 | 12 | 1 | 1.6 | 3.2 | 0.00 | 0.00 | 0.00 | 98 | 1008.5 |
| 20260507040903 | 12 | 1 | 1.6 | 3.2 | 0.00 | 0.00 | 0.00 | 98 | 1008.5 |
| 20260507040604 | 12 | 3 | 1.6 | 3.2 | 0.00 | 0.00 | 0.00 | 98 | 1008.5 |
| 20260507040303 | 12 | 11 | 3.2 | 3.2 | 0.00 | 0.00 | 0.00 | 98 | 1009.5 |
| 20260507040004 | 12 | 13 | 1.6 | 3.2 | 0.00 | 0.00 | 0.00 | 98 | 1009.5 |
| 20260507035704 | 12 | 7 | 1.6 | 3.2 | 0.00 | 0.00 | 0.00 | 98 | 1009.5 |
| 20260507035403 | 12 | 357 | 3.2 | 3.2 | 0.00 | 0.00 | 0.00 | 98 | 1009.5 |
| 20260507035104 | 12 | 346 | 0.0 | 4.8 | 0.00 | 0.00 | 0.00 | 98 | 1009.5 |
| 20260507034804 | 12 | 349 | 3.2 | 4.8 | 0.00 | 0.00 | 0.00 | 98 | 1009.5 |
| 20260507034203 | 12 | 348 | 4.8 | 4.8 | 0.00 | 0.00 | 0.00 | 98 | 1009.5 |
| 20260507033903 | 12 | 352 | 3.2 | 4.8 | 0.00 | 0.00 | 0.00 | 98 | 1009.5 |
| 20260507033304 | 12 | 348 | 3.2 | 4.8 | 0.00 | 0.00 | 0.00 | 98 | 1008.5 |
| 20260507033003 | 12 | 342 | 3.2 | 3.2 | 0.00 | 0.00 | 0.00 | 98 | 1008.5 |
| 20260507032703 | 12 | 338 | 1.6 | 3.2 | 0.00 | 0.00 | 0.00 | 98 | 1008.5 |
| 20260507032404 | 12 | 335 | 3.2 | 3.2 | 0.00 | 0.00 | 0.00 | 98 | 1008.5 |
| 20260507031504 | 12 | 346 | 3.2 | 3.2 | 0.00 | 0.00 | 0.00 | 98 | 1009.5 |
| 20260507031204 | 12 | 348 | 1.6 | 3.2 | 0.00 | 0.00 | 0.00 | 98 | 1009.5 |
| 20260507030903 | 12 | 354 | 3.2 | 3.2 | 0.00 | 0.00 | 0.00 | 98 | 1009.5 |
| 20260507030603 | 12 | 352 | 1.6 | 3.2 | 0.00 | 0.00 | 0.00 | 98 | 1009.5 |
| 20260507030304 | 12 | 341 | 1.6 | 3.2 | 0.00 | 0.00 | 0.00 | 98 | 1009.5 |
| 20260507025704 | 12 | 334 | 3.2 | 3.2 | 0.00 | 0.00 | 0.00 | 98 | 1009.5 |
| 20260507025403 | 12 | 337 | 3.2 | 3.2 | 0.00 | 0.00 | 0.00 | 98 | 1009.5 |
| 20260507025104 | 12 | 343 | 3.2 | 3.2 | 0.00 | 0.00 | 0.00 | 98 | 1009.5 |
| 20260507024803 | 12 | 342 | 1.6 | 3.2 | 0.00 | 0.00 | 0.00 | 98 | 1009.5 |
| 20260507024203 | 12 | 326 | 3.2 | 3.2 | 0.00 | 0.00 | 0.00 | 98 | 1009.5 |
| 20260507023603 | 12 | 317 | 3.2 | 3.2 | 0.00 | 0.00 | 0.00 | 98 | 1009.5 |
| 20260507023004 | 12 | 331 | 3.2 | 4.8 | 0.00 | 0.00 | 0.00 | 98 | 1009.5 |
| 20260507022704 | 12 | 327 | 3.2 | 4.8 | 0.00 | 0.00 | 0.00 | 98 | 1009.5 |
| 20260507022104 | 12 | 314 | 4.8 | 4.8 | 0.00 | 0.00 | 0.00 | 98 | 1009.5 |
| 20260507021803 | 12 | 314 | 4.8 | 4.8 | 0.00 | 0.00 | 0.00 | 98 | 1009.5 |
| 20260507021504 | 12 | 337 | 0.0 | 3.2 | 0.00 | 0.00 | 0.00 | 98 | 1009.5 |
| 20260507021204 | 12 | 345 | 0.0 | 3.2 | 0.00 | 0.00 | 0.00 | 98 | 1009.5 |
| 20260507020903 | 12 | 353 | 0.0 | 3.2 | 0.00 | 0.00 | 0.00 | 98 | 1009.5 |
| 20260507020304 | 12 | 36 | 1.6 | 3.2 | 0.00 | 0.00 | 0.00 | 98 | 1009.5 |
| 20260507020004 | 12 | 46 | 0.0 | 3.2 | 0.00 | 0.00 | 0.00 | 98 | 1009.5 |
| 20260507015704 | 12 | 35 | 0.0 | 3.2 | 0.00 | 0.00 | 0.00 | 98 | 1009.5 |
| 20260507015404 | 12 | 350 | 0.0 | 1.6 | 0.00 | 0.00 | 0.00 | 98 | 1009.5 |
| 20260507015104 | 13 | 336 | 0.0 | 3.2 | 0.00 | 0.00 | 0.00 | 98 | 1009.5 |
| 20260507014803 | 13 | 336 | 1.6 | 3.2 | 0.00 | 0.00 | 0.00 | 98 | 1009.5 |
| 20260507014504 | 13 | 338 | 1.6 | 3.2 | 0.00 | 0.00 | 0.00 | 98 | 1009.5 |
| 20260507014204 | 13 | 7 | 3.2 | 4.8 | 0.00 | 0.00 | 0.00 | 98 | 1009.5 |
| 20260507013903 | 13 | 1 | 0.0 | 4.8 | 0.00 | 0.00 | 0.00 | 98 | 1009.5 |
| 20260507013604 | 13 | 359 | 1.6 | 4.8 | 0.00 | 0.00 | 0.00 | 98 | 1009.5 |
| 20260507012703 | 13 | 359 | 3.2 | 4.8 | 0.00 | 0.00 | 0.00 | 98 | 1009.5 |
| 20260507012404 | 13 | 359 | 3.2 | 4.8 | 0.00 | 0.00 | 0.00 | 98 | 1009.5 |
| 20260507012104 | 13 | 11 | 3.2 | 4.8 | 0.00 | 0.00 | 0.00 | 98 | 1009.5 |
| 20260507011804 | 13 | 14 | 4.8 | 4.8 | 0.00 | 0.00 | 0.00 | 98 | 1009.5 |
| 20260507010904 | 13 | 15 | 3.2 | 9.7 | 0.00 | 0.00 | 0.00 | 98 | 1009.5 |
| 20260507010604 | 13 | 14 | 4.8 | 9.7 | 0.00 | 0.00 | 0.00 | 98 | 1009.5 |
| 20260507010303 | 13 | 12 | 9.7 | 9.7 | 0.00 | 0.00 | 0.00 | 98 | 1009.5 |
| 20260507010004 | 13 | 8 | 6.4 | 6.4 | 0.00 | 0.00 | 0.00 | 98 | 1009.5 |
| 20260507005704 | 13 | 24 | 3.2 | 6.4 | 0.00 | 0.00 | 0.00 | 98 | 1009.5 |
| 20260507005103 | 13 | 30 | 6.4 | 6.4 | 0.00 | 0.00 | 0.00 | 98 | 1009.5 |
| 20260507004803 | 13 | 25 | 6.4 | 8.0 | 0.00 | 0.00 | 0.00 | 98 | 1009.5 |
| 20260507004504 | 13 | 16 | 3.2 | 8.0 | 0.00 | 0.00 | 0.00 | 98 | 1009.5 |
| 20260507004204 | 13 | 16 | 3.2 | 8.0 | 0.00 | 0.00 | 0.00 | 98 | 1009.5 |
| 20260507003303 | 12 | 339 | 0.0 | 3.2 | 0.00 | 0.00 | 0.00 | 98 | 1009.5 |
| 20260507003004 | 13 | 338 | 1.6 | 3.2 | 0.00 | 0.00 | 0.00 | 98 | 1009.5 |
| 20260507002703 | 13 | 347 | 1.6 | 3.2 | 0.00 | 0.00 | 0.00 | 98 | 1009.5 |
| 20260507002403 | 13 | 9 | 3.2 | 3.2 | 0.00 | 0.00 | 0.00 | 98 | 1009.5 |
| 20260507002103 | 13 | 22 | 1.6 | 3.2 | 0.00 | 0.00 | 0.00 | 98 | 1009.5 |
| 20260507001803 | 13 | 353 | 3.2 | 3.2 | 0.00 | 0.00 | 0.00 | 98 | 1009.5 |
| 20260507001503 | 13 | 314 | 0.0 | 3.2 | 0.00 | 0.00 | 0.00 | 98 | 1009.5 |
| 20260507001203 | 13 | 319 | 0.0 | 3.2 | 0.00 | 0.00 | 0.00 | 98 | 1009.5 |
| 20260507000603 | 13 | 349 | 3.2 | 3.2 | 0.00 | 0.00 | 0.00 | 98 | 1009.5 |
| 20260507000306 | 13 | 24 | 1.6 | 1.6 | 0.00 | 0.00 | 0.00 | 98 | 1009.5 |
| 20260507000004 | 13 | 45 | 0.0 | 1.6 | 0.00 | 0.00 | 0.00 | 98 | 1009.5 |
| 20260506235703 | 13 | 46 | 1.6 | 1.6 | 0.00 | 0.00 | 0.00 | 98 | 1009.5 |
| 20260506234503 | 13 | 314 | 0.0 | 3.2 | 0.00 | 0.00 | 0.00 | 98 | 1009.5 |
| 20260506234204 | 13 | 314 | 0.0 | 3.2 | 0.00 | 0.00 | 0.00 | 98 | 1009.5 |
| 20260506233903 | 13 | 327 | 0.0 | 3.2 | 0.00 | 0.00 | 0.00 | 98 | 1009.5 |
| 20260506233603 | 13 | 348 | 0.0 | 3.2 | 0.00 | 0.00 | 0.00 | 98 | 1009.5 |
| 20260506233303 | 13 | 10 | 0.0 | 3.2 | 0.00 | 0.00 | 0.00 | 98 | 1009.5 |
| 20260506233004 | 13 | 33 | 3.2 | 4.8 | 0.00 | 0.00 | 0.00 | 98 | 1009.5 |
| 20260506232704 | 13 | 40 | 1.6 | 4.8 | 0.00 | 0.00 | 0.00 | 98 | 1009.5 |
| 20260506232403 | 13 | 24 | 1.6 | 4.8 | 0.00 | 0.00 | 0.00 | 98 | 1009.5 |
| 20260506232104 | 13 | 337 | 4.8 | 4.8 | 0.00 | 0.00 | 0.00 | 98 | 1009.5 |
| 20260506231503 | 13 | 312 | 3.2 | 3.2 | 0.00 | 0.00 | 0.00 | 98 | 1009.5 |
| 20260506231204 | 13 | 315 | 3.2 | 3.2 | 0.00 | 0.00 | 0.00 | 98 | 1009.5 |
| 20260506230903 | 13 | 321 | 3.2 | 4.8 | 0.00 | 0.00 | 0.00 | 98 | 1009.5 |
| 20260506230604 | 13 | 332 | 3.2 | 4.8 | 0.00 | 0.00 | 0.00 | 98 | 1009.5 |
| 20260506230303 | 13 | 334 | 3.2 | 4.8 | 0.00 | 0.00 | 0.00 | 98 | 1009.5 |
| 20260506230003 | 13 | 333 | 3.2 | 3.2 | 0.00 | 0.00 | 0.00 | 98 | 1009.5 |
| 20260506225703 | 13 | 319 | 3.2 | 3.2 | 0.00 | 0.00 | 0.00 | 98 | 1009.5 |
| 20260506225403 | 13 | 320 | 1.6 | 3.2 | 0.00 | 0.00 | 0.00 | 98 | 1009.5 |
| 20260506225104 | 13 | 327 | 3.2 | 3.2 | 0.00 | 0.00 | 0.00 | 98 | 1009.5 |
| 20260506224804 | 13 | 333 | 3.2 | 3.2 | 0.00 | 0.00 | 0.00 | 98 | 1009.5 |
| 20260506224503 | 13 | 337 | 3.2 | 3.2 | 0.00 | 0.00 | 0.00 | 98 | 1009.5 |
| 20260506224203 | 13 | 341 | 3.2 | 3.2 | 0.00 | 0.00 | 0.00 | 98 | 1009.5 |
| 20260506223903 | 13 | 347 | 3.2 | 3.2 | 0.00 | 0.00 | 0.00 | 98 | 1009.5 |
| 20260506223603 | 13 | 355 | 3.2 | 3.2 | 0.00 | 0.00 | 0.00 | 98 | 1009.5 |
| 20260506222704 | 13 | 319 | 1.6 | 4.8 | 0.00 | 0.00 | 0.00 | 98 | 1009.5 |
| 20260506222404 | 13 | 322 | 3.2 | 4.8 | 0.00 | 0.00 | 0.00 | 98 | 1009.5 |
| 20260506222103 | 13 | 325 | 4.8 | 4.8 | 0.00 | 0.00 | 0.00 | 98 | 1009.5 |
| 20260506221803 | 13 | 331 | 4.8 | 4.8 | 0.00 | 0.00 | 0.00 | 98 | 1009.5 |
| 20260506221504 | 13 | 335 | 4.8 | 4.8 | 0.00 | 0.00 | 0.00 | 98 | 1009.5 |
| 20260506221203 | 13 | 335 | 3.2 | 3.2 | 0.00 | 0.00 | 0.00 | 98 | 1009.5 |
| 20260506220904 | 13 | 335 | 3.2 | 3.2 | 0.00 | 0.00 | 0.00 | 98 | 1009.5 |
| 20260506220304 | 13 | 335 | 3.2 | 3.2 | 0.00 | 0.00 | 0.00 | 98 | 1009.5 |
| 20260506220004 | 13 | 333 | 3.2 | 3.2 | 0.00 | 0.00 | 0.00 | 98 | 1009.5 |
| 20260506215703 | 13 | 333 | 3.2 | 3.2 | 0.00 | 0.00 | 0.00 | 98 | 1009.5 |
| 20260506214504 | 14 | 329 | 1.6 | 3.2 | 0.00 | 0.00 | 0.00 | 98 | 1009.5 |
| 20260506214203 | 14 | 323 | 1.6 | 3.2 | 0.00 | 0.00 | 0.00 | 98 | 1009.5 |
| 20260506213904 | 14 | 325 | 3.2 | 4.8 | 0.00 | 0.00 | 0.00 | 98 | 1009.5 |
| 20260506213603 | 14 | 329 | 3.2 | 4.8 | 0.00 | 0.00 | 0.00 | 98 | 1009.5 |
| 20260506213304 | 14 | 336 | 3.2 | 4.8 | 0.00 | 0.00 | 0.00 | 98 | 1009.5 |
| 20260506213004 | 14 | 339 | 3.2 | 4.8 | 0.00 | 0.00 | 0.00 | 98 | 1009.5 |
| 20260506212704 | 14 | 327 | 4.8 | 4.8 | 0.00 | 0.00 | 0.00 | 98 | 1009.5 |
| 20260506212403 | 14 | 328 | 0.0 | 3.2 | 0.00 | 0.00 | 0.00 | 98 | 1009.5 |
| 20260506211503 | 14 | 351 | 3.2 | 4.8 | 0.00 | 0.00 | 0.00 | 98 | 1009.5 |
| 20260506210904 | 14 | 353 | 3.2 | 4.8 | 0.00 | 0.00 | 0.00 | 98 | 1009.5 |
| 20260506210603 | 15 | 351 | 3.2 | 4.8 | 0.00 | 0.00 | 0.00 | 98 | 1009.5 |
| 20260506205404 | 15 | 331 | 1.6 | 3.2 | 0.00 | 0.00 | 0.00 | 96 | 1009.5 |
| 20260506205103 | 15 | 337 | 1.6 | 3.2 | 0.00 | 0.00 | 0.00 | 96 | 1009.5 |
| 20260506204803 | 15 | 352 | 0.0 | 4.8 | 0.00 | 0.00 | 0.00 | 96 | 1009.5 |
| 20260506204504 | 15 | 5 | 1.6 | 4.8 | 0.00 | 0.00 | 0.00 | 95 | 1009.5 |
| 20260506203904 | 15 | 22 | 4.8 | 4.8 | 0.00 | 0.00 | 0.00 | 93 | 1009.5 |
| 20260506203603 | 15 | 314 | 0.0 | 1.6 | 0.00 | 0.00 | 0.00 | 92 | 1009.5 |
| 20260506203304 | 15 | 314 | 0.0 | 1.6 | 0.00 | 0.00 | 0.00 | 92 | 1008.5 |
| 20260506203003 | 15 | 314 | 0.0 | 4.8 | 0.00 | 0.00 | 0.00 | 92 | 1008.5 |
| 20260506202403 | 15 | 314 | 1.6 | 4.8 | 0.00 | 0.00 | 0.00 | 92 | 1008.5 |
| 20260506202104 | 15 | 320 | 3.2 | 3.2 | 0.00 | 0.00 | 0.00 | 89 | 1008.5 |
| 20260506201803 | 15 | 332 | 1.6 | 4.8 | 0.00 | 0.00 | 0.00 | 88 | 1008.5 |
| 20260506201503 | 15 | 341 | 3.2 | 4.8 | 0.00 | 0.00 | 0.00 | 87 | 1008.5 |
| 20260506201203 | 16 | 350 | 1.6 | 4.8 | 0.00 | 0.00 | 0.00 | 87 | 1008.5 |
| 20260506200904 | 16 | 1 | 3.2 | 3.2 | 0.00 | 0.00 | 0.00 | 83 | 1008.5 |
| 20260506200604 | 16 | 1 | 1.6 | 1.6 | 0.00 | 0.00 | 0.00 | 81 | 1008.5 |
| 20260506200304 | 16 | 1 | 0.0 | 1.6 | 0.00 | 0.00 | 0.00 | 81 | 1008.5 |
| 20260506195403 | 16 | 335 | 1.6 | 3.2 | 0.00 | 0.00 | 0.00 | 78 | 1008.5 |
| 20260506194803 | 17 | 337 | 3.2 | 3.2 | 0.00 | 0.00 | 0.00 | 75 | 1008.5 |
| 20260506194204 | 17 | 0 | 0.0 | 0.0 | 0.00 | 0.00 | 0.00 | 74 | 1008.5 |
| 20260506193903 | 17 | 0 | 0.0 | 0.0 | 0.00 | 0.00 | 0.00 | 75 | 1008.5 |
| 20260506193603 | 17 | 0 | 0.0 | 0.0 | 0.00 | 0.00 | 0.00 | 74 | 1008.5 |
| 20260506193303 | 17 | 135 | 0.0 | 3.2 | 0.00 | 0.00 | 0.00 | 74 | 1008.5 |
| 20260506193003 | 17 | 135 | 0.0 | 3.2 | 0.00 | 0.00 | 0.00 | 74 | 1008.5 |
| 20260506192403 | 17 | 135 | 3.2 | 4.8 | 0.00 | 0.00 | 0.00 | 75 | 1008.5 |
| 20260506192104 | 17 | 135 | 3.2 | 4.8 | 0.00 | 0.00 | 0.00 | 75 | 1008.5 |
| 20260506191803 | 17 | 135 | 4.8 | 4.8 | 0.00 | 0.00 | 0.00 | 72 | 1007.5 |
| 20260506191204 | 17 | 135 | 1.6 | 4.8 | 0.00 | 0.00 | 0.00 | 69 | 1007.5 |
| 20260506190903 | 17 | 135 | 3.2 | 4.8 | 0.00 | 0.00 | 0.00 | 69 | 1007.5 |
| 20260506190603 | 17 | 138 | 4.8 | 4.8 | 0.00 | 0.00 | 0.00 | 68 | 1007.5 |
| 20260506190004 | 18 | 154 | 3.2 | 3.2 | 0.00 | 0.00 | 0.00 | 65 | 1007.5 |
| 20260506185703 | 18 | 162 | 1.6 | 3.2 | 0.00 | 0.00 | 0.00 | 63 | 1007.5 |
| 20260506185404 | 18 | 155 | 3.2 | 3.2 | 0.00 | 0.00 | 0.00 | 61 | 1007.5 |
| 20260506185103 | 18 | 154 | 1.6 | 3.2 | 0.00 | 0.00 | 0.00 | 61 | 1007.5 |
| 20260506184803 | 18 | 140 | 0.0 | 3.2 | 0.00 | 0.00 | 0.00 | 60 | 1007.5 |
| 20260506184203 | 19 | 148 | 1.6 | 3.2 | 0.00 | 0.00 | 0.00 | 58 | 1007.5 |
| 20260506183903 | 20 | 149 | 3.2 | 3.2 | 0.00 | 0.00 | 0.00 | 57 | 1007.5 |
| 20260506183604 | 20 | 149 | 0.0 | 3.2 | 0.00 | 0.00 | 0.00 | 57 | 1007.5 |
| 20260506183304 | 20 | 157 | 1.6 | 4.8 | 0.00 | 0.00 | 0.00 | 57 | 1007.5 |
| 20260506183003 | 20 | 148 | 3.2 | 6.4 | 0.00 | 0.00 | 0.00 | 57 | 1007.5 |
| 20260506182703 | 20 | 133 | 1.6 | 6.4 | 0.00 | 0.00 | 0.00 | 58 | 1007.5 |
| 20260506182404 | 20 | 132 | 4.8 | 9.7 | 0.00 | 0.00 | 0.00 | 58 | 1007.5 |
| 20260506182103 | 20 | 128 | 6.4 | 9.7 | 0.00 | 0.00 | 0.00 | 58 | 1007.5 |
| 20260506181804 | 20 | 134 | 1.6 | 9.7 | 0.00 | 0.10 | 0.00 | 58 | 1006.5 |
| 20260506181504 | 20 | 132 | 8.0 | 9.7 | 0.00 | 0.10 | 0.00 | 57 | 1006.5 |
| 20260506181203 | 20 | 118 | 4.8 | 9.7 | 0.00 | 0.10 | 0.00 | 56 | 1006.5 |
| 20260506180904 | 20 | 115 | 4.8 | 9.7 | 0.00 | 0.10 | 0.00 | 53 | 1006.5 |
| 20260506180603 | 20 | 112 | 4.8 | 9.7 | 0.00 | 0.10 | 0.00 | 52 | 1006.5 |
| 20260506180303 | 20 | 118 | 9.7 | 9.7 | 0.00 | 0.10 | 0.00 | 51 | 1006.5 |
| 20260506180004 | 20 | 125 | 4.8 | 9.7 | 0.00 | 0.10 | 0.00 | 51 | 1006.5 |
| 20260506175704 | 20 | 131 | 9.7 | 9.7 | 0.00 | 0.10 | 0.00 | 51 | 1006.5 |
| 20260506175403 | 20 | 136 | 9.7 | 9.7 | 0.00 | 0.10 | 0.00 | 51 | 1006.5 |
| 20260506175103 | 21 | 140 | 4.8 | 9.7 | 0.00 | 0.10 | 0.00 | 50 | 1006.5 |
| 20260506174803 | 21 | 140 | 6.4 | 9.7 | 0.00 | 0.10 | 0.00 | 49 | 1006.5 |
| 20260506174503 | 21 | 132 | 9.7 | 9.7 | 0.00 | 0.10 | 0.00 | 46 | 1006.5 |
| 20260506174204 | 21 | 132 | 6.4 | 9.7 | 0.00 | 0.10 | 0.00 | 45 | 1006.5 |
| 20260506173903 | 21 | 131 | 8.0 | 12.9 | 0.00 | 0.10 | 0.00 | 45 | 1006.5 |
| 20260506173603 | 21 | 140 | 8.0 | 12.9 | 0.00 | 0.10 | 0.00 | 45 | 1006.5 |
| 20260506173304 | 21 | 141 | 0.0 | 12.9 | 0.00 | 0.10 | 0.00 | 45 | 1006.5 |
| 20260506173003 | 21 | 135 | 4.8 | 12.9 | 0.00 | 0.10 | 0.00 | 45 | 1006.5 |
| 20260506172103 | 22 | 104 | 4.8 | 9.7 | 0.00 | 0.10 | 0.00 | 41 | 1006.5 |
| 20260506171803 | 22 | 112 | 1.6 | 9.7 | 0.00 | 0.10 | 0.00 | 41 | 1006.5 |
| 20260506171503 | 22 | 150 | 0.0 | 9.7 | 0.00 | 0.23 | 0.00 | 42 | 1006.5 |
| 20260506171204 | 21 | 140 | 9.7 | 9.7 | 0.00 | 0.23 | 0.00 | 42 | 1006.5 |
| 20260506170904 | 21 | 148 | 4.8 | 4.8 | 0.00 | 0.23 | 0.00 | 42 | 1006.5 |
| 20260506170303 | 22 | 135 | 4.8 | 4.8 | 0.00 | 0.23 | 0.00 | 41 | 1006.5 |
| 20260506165703 | 21 | 135 | 4.8 | 4.8 | 0.00 | 0.23 | 0.00 | 41 | 1006.5 |
| 20260506165403 | 21 | 135 | 4.8 | 4.8 | 0.00 | 0.23 | 0.00 | 41 | 1006.5 |
| 20260506165103 | 21 | 135 | 4.8 | 4.8 | 0.00 | 0.23 | 0.00 | 41 | 1006.5 |
| 20260506164804 | 21 | 135 | 4.8 | 4.8 | 0.00 | 0.23 | 0.00 | 42 | 1006.5 |
| 20260506164504 | 21 | 135 | 4.8 | 4.8 | 0.00 | 0.23 | 0.00 | 42 | 1006.5 |
| 20260506164203 | 21 | 135 | 4.8 | 4.8 | 0.00 | 0.23 | 0.00 | 42 | 1006.5 |
| 20260506163903 | 21 | 135 | 4.8 | 4.8 | 0.00 | 0.23 | 0.00 | 42 | 1006.5 |
| 20260506163603 | 21 | 135 | 4.8 | 4.8 | 0.00 | 0.23 | 0.00 | 42 | 1006.5 |
| 20260506163303 | 21 | 135 | 4.8 | 4.8 | 0.00 | 0.23 | 0.00 | 43 | 1006.5 |
| 20260506163003 | 21 | 135 | 4.8 | 4.8 | 0.00 | 0.23 | 0.00 | 44 | 1006.5 |
| 20260506162702 | 21 | 135 | 4.8 | 4.8 | 0.00 | 0.23 | 0.00 | 42 | 1006.5 |
| 20260506162403 | 21 | 135 | 4.8 | 4.8 | 0.00 | 0.23 | 0.00 | 43 | 1006.5 |
| 20260506162103 | 21 | 135 | 4.8 | 4.8 | 0.00 | 0.23 | 0.00 | 44 | 1006.5 |
| 20260506161803 | 21 | 135 | 4.8 | 4.8 | 0.00 | 0.23 | 0.00 | 43 | 1006.5 |
| 20260506161503 | 22 | 135 | 4.8 | 4.8 | 0.00 | 0.23 | 0.00 | 42 | 1006.5 |
| 20260506161203 | 22 | 135 | 4.8 | 4.8 | 0.00 | 0.23 | 0.00 | 41 | 1006.5 |
| 20260506160604 | 22 | 121 | 4.8 | 9.7 | 0.00 | 0.23 | 0.00 | 41 | 1006.5 |
| 20260506160303 | 22 | 104 | 4.8 | 9.7 | 0.00 | 0.23 | 0.00 | 39 | 1006.5 |
| 20260506160003 | 22 | 93 | 3.2 | 9.7 | 0.00 | 0.23 | 0.00 | 36 | 1006.5 |
| 20260506154503 | 23 | 90 | 9.7 | 9.7 | 0.00 | 0.23 | 0.00 | 33 | 1006.5 |
| 20260506154203 | 22 | 90 | 9.7 | 9.7 | 0.00 | 0.23 | 0.00 | 33 | 1006.5 |
| 20260506153903 | 23 | 99 | 9.7 | 9.7 | 0.00 | 0.23 | 0.00 | 32 | 1006.5 |
| 20260506153603 | 23 | 140 | 9.7 | 14.5 | 0.00 | 0.23 | 0.00 | 33 | 1006.5 |
| 20260506152403 | 22 | 157 | 9.7 | 9.7 | 0.00 | 0.23 | 0.00 | 32 | 1006.5 |
| 20260506152103 | 22 | 167 | 8.0 | 14.5 | 0.00 | 0.23 | 0.00 | 32 | 1006.5 |
| 20260506151803 | 22 | 157 | 9.7 | 16.1 | 0.00 | 0.23 | 0.00 | 33 | 1006.5 |
| 20260506151503 | 22 | 158 | 8.0 | 16.1 | 0.00 | 0.23 | 0.00 | 33 | 1006.5 |
| 20260506151204 | 22 | 153 | 3.2 | 16.1 | 0.00 | 0.23 | 0.00 | 32 | 1006.5 |
| 20260506150903 | 22 | 144 | 16.1 | 16.1 | 0.00 | 0.23 | 0.00 | 31 | 1006.5 |
| 20260506150604 | 23 | 164 | 4.8 | 12.9 | 0.00 | 0.23 | 0.00 | 32 | 1006.5 |
| 20260506150305 | 22 | 189 | 3.2 | 12.9 | 0.00 | 0.23 | 0.00 | 33 | 1006.5 |
| 20260506150003 | 22 | 191 | 12.9 | 12.9 | 0.00 | 0.23 | 0.00 | 32 | 1006.5 |
| 20260506145703 | 22 | 174 | 6.4 | 11.3 | 0.00 | 0.23 | 0.00 | 33 | 1006.5 |
| 20260506145403 | 22 | 152 | 8.0 | 11.3 | 0.00 | 0.23 | 0.00 | 33 | 1007.5 |
| 20260506145103 | 22 | 154 | 4.8 | 11.3 | 0.00 | 0.23 | 0.00 | 33 | 1007.5 |
| 20260506144803 | 22 | 182 | 4.8 | 11.3 | 0.00 | 0.23 | 0.00 | 32 | 1007.5 |
| 20260506144504 | 23 | 188 | 9.7 | 11.3 | 0.00 | 0.23 | 0.00 | 32 | 1007.5 |
| 20260506144203 | 22 | 189 | 6.4 | 11.3 | 0.00 | 0.23 | 0.00 | 33 | 1007.5 |
| 20260506143903 | 22 | 183 | 6.4 | 9.7 | 0.00 | 0.23 | 0.00 | 33 | 1007.5 |
| 20260506143303 | 22 | 188 | 4.8 | 9.7 | 0.00 | 0.23 | 0.00 | 33 | 1007.5 |
| 20260506143003 | 22 | 193 | 9.7 | 9.7 | 0.00 | 0.23 | 0.00 | 33 | 1007.5 |
| 20260506142702 | 22 | 202 | 3.2 | 6.4 | 0.00 | 0.23 | 0.00 | 34 | 1007.5 |
| 20260506142403 | 22 | 184 | 6.4 | 14.5 | 0.00 | 0.23 | 0.00 | 34 | 1007.5 |
| 20260506142103 | 22 | 168 | 4.8 | 14.5 | 0.00 | 0.23 | 0.00 | 33 | 1007.5 |
| 20260506141803 | 22 | 161 | 1.6 | 17.7 | 0.00 | 0.23 | 0.00 | 33 | 1007.5 |
| 20260506141503 | 22 | 161 | 6.4 | 17.7 | 0.00 | 0.23 | 0.00 | 33 | 1007.5 |
| 20260506141203 | 22 | 182 | 11.3 | 17.7 | 0.00 | 0.23 | 0.00 | 32 | 1007.5 |
| 20260506140603 | 23 | 204 | 4.8 | 9.7 | 0.00 | 0.23 | 0.00 | 32 | 1007.5 |
| 20260506140303 | 22 | 202 | 9.7 | 9.7 | 0.00 | 0.23 | 0.00 | 31 | 1007.5 |
| 20260506140004 | 22 | 182 | 3.2 | 9.7 | 0.00 | 0.23 | 0.00 | 32 | 1007.5 |
| 20260506135703 | 22 | 172 | 6.4 | 17.7 | 0.00 | 0.23 | 0.00 | 32 | 1007.5 |
| 20260506135403 | 22 | 167 | 4.8 | 17.7 | 0.00 | 0.23 | 0.00 | 32 | 1007.5 |
| 20260506135103 | 21 | 171 | 3.2 | 17.7 | 0.00 | 0.23 | 0.00 | 32 | 1007.5 |
| 20260506134503 | 22 | 178 | 4.8 | 8.0 | 0.00 | 0.23 | 0.00 | 32 | 1007.5 |
| 20260506134203 | 22 | 192 | 3.2 | 6.4 | 0.00 | 0.23 | 0.00 | 32 | 1007.5 |
| 20260506133903 | 22 | 195 | 6.4 | 6.4 | 0.00 | 0.23 | 0.00 | 30 | 1007.5 |
| 20260506133603 | 22 | 202 | 6.4 | 9.7 | 0.00 | 0.23 | 0.00 | 31 | 1007.5 |
| 20260506133303 | 22 | 199 | 4.8 | 9.7 | 0.00 | 0.23 | 0.00 | 30 | 1007.5 |